Home   Weather   Sandpoint   Past weeks

Flag for USA Past Weather in Sandpoint, Idaho, USA — Yesterday and Last 2 Weeks

Now
43 °F

Overcast.


Feels Like: 43 °F
Forecast: 37 / 46 °F
Wind: No wind

Location: Sandpoint Airport

Current Time: Apr 27, 2017 at 3:47:35 pm

Latest Report: Apr 27, 2017 at 3:15 pm


Visibility: 10 mi

Pressure: 29.88 "Hg (27.64 "Hg at 636m altitude)

Humidity: 81%

Dew Point: 37 °F

Location of SandpointLocation

Past Weather in Sandpoint — Graph

°F

Sandpoint Temperature Yesterday

Maximum temperature yesterday: 50 °F (at 3:55 pm)
Minimum temperature yesterday: 37 °F (at 1:55 am)
Average temperature yesterday: 42 °F

High & Low Weather Summary for the Past Weeks

 TemperatureHumidityPressure
High64 °F (Apr 22, 2:15 pm)100% (Apr 12, 2:55 pm)30.37 "Hg (Apr 12, 2:55 pm)
Low28 °F (Apr 16, 2:55 am)25% (Apr 16, 3:55 pm)29.63 "Hg (Apr 13, 4:15 am)
Average43 °F82%29.94 "Hg
* Reported Apr 12 2:15 pm — Apr 27 2:35 pm, Sandpoint, Weather by CustomWeather, © 2017

Note: Actual official high and low records may vary slightly from our data, if they occured in-between our weather recording intervals... More about our weather records

Advertising

Sandpoint Weather History for the Previous 24 Hours

Scroll right to see more
 ConditionsComfort  
Time TempWeatherWind HumidityBarometerVisibility
2:35 pm
Thu, Apr 27
43 °FMostly cloudy.12 mph81%29.87 "Hg10 mi
2:15 pm43 °FOvercast.9 mph81%29.88 "Hg10 mi
1:55 pm43 °FMostly cloudy.7 mph81%29.88 "Hg10 mi
1:35 pm43 °FOvercast.7 mph81%29.88 "Hg10 mi
1:15 pm43 °FDrizzle. Mostly cloudy.8 mph87%29.88 "Hg10 mi
12:55 pm41 °FDrizzle. More clouds than sun.8 mph87%29.88 "Hg10 mi
12:35 pm41 °FDrizzle. More clouds than sun.7 mph87%29.88 "Hg10 mi
11:55 am39 °FDrizzle. Overcast.9 mph93%29.88 "Hg7 mi
11:35 am39 °FDrizzle. Overcast.8 mph87%29.88 "Hg10 mi
11:15 am39 °FDrizzle. Overcast.8 mph93%29.87 "Hg10 mi
10:55 am37 °FDrizzle. Overcast.7 mph93%29.87 "Hg10 mi
10:35 am37 °FDrizzle. Overcast.6 mph93%29.86 "Hg10 mi
10:15 am37 °FDrizzle. Overcast.5 mph93%29.86 "Hg10 mi
9:55 am37 °FDrizzle. Overcast.3 mph93%29.85 "Hg10 mi
9:35 am37 °FOvercast.No wind93%29.85 "Hg10 mi
9:15 am37 °FOvercast.5 mph93%29.84 "Hg10 mi
8:55 am37 °FOvercast.5 mph93%29.84 "Hg10 mi
8:15 am37 °FMostly cloudy.3 mph93%29.83 "Hg10 mi
7:55 am37 °FOvercast.3 mph93%29.82 "Hg10 mi
7:35 am37 °FDrizzle. Overcast.5 mph93%29.82 "Hg10 mi
7:15 am37 °FDrizzle. Overcast.No wind93%29.81 "Hg10 mi
6:35 am37 °FLight rain. Low clouds.5 mph93%29.80 "Hg10 mi
6:15 am37 °FDrizzle. Low clouds.3 mph93%29.79 "Hg10 mi
5:55 am37 °FLight rain. Low clouds.3 mph100%29.78 "Hg10 mi
5:35 am39 °FDrizzle. Low clouds.No wind93%29.77 "Hg10 mi
5:15 am39 °FLight rain. Low clouds.6 mph93%29.76 "Hg10 mi
4:55 am41 °FDrizzle. Overcast.No wind87%29.76 "Hg10 mi
4:35 am41 °FDrizzle. Mostly cloudy.3 mph87%29.75 "Hg10 mi
4:15 am41 °FOvercast.3 mph87%29.75 "Hg10 mi
3:55 am41 °FOvercast.5 mph87%29.74 "Hg10 mi
3:35 am41 °FDrizzle. Mostly cloudy.5 mph93%29.74 "Hg10 mi
3:15 am41 °FLight rain. Overcast.5 mph93%29.74 "Hg10 mi
2:55 am41 °FDrizzle. Mostly cloudy.3 mph93%29.73 "Hg10 mi
2:35 am41 °FPassing clouds.3 mph93%29.73 "Hg10 mi
1:55 am41 °FRain. Partly cloudy.5 mph93%29.73 "Hg10 mi
1:35 am41 °FPassing clouds.6 mph93%29.73 "Hg10 mi
1:15 am41 °FPartly cloudy.7 mph93%29.72 "Hg10 mi
12:55 am41 °FPartly cloudy.5 mph93%29.72 "Hg10 mi
12:15 am41 °FPartly cloudy.7 mph93%29.72 "Hg10 mi
11:55 pm
Wed, Apr 26
41 °FPassing clouds.7 mph93%29.71 "Hg10 mi
11:35 pm41 °FPassing clouds.6 mph93%29.71 "Hg10 mi
11:15 pm41 °FPassing clouds.5 mph93%29.70 "Hg10 mi
10:55 pm41 °FMostly cloudy.6 mph93%29.70 "Hg10 mi
10:35 pm41 °FMostly cloudy.3 mph93%29.70 "Hg10 mi
10:20 pm41 °FPartly cloudy.3 mph93%29.70 "Hg10 mi
9:55 pm41 °FPartly cloudy.5 mph100%29.70 "Hg10 mi
9:35 pm41 °FMostly cloudy.5 mph100%29.69 "Hg10 mi
9:15 pm43 °FPassing clouds.3 mph93%29.69 "Hg10 mi
8:55 pm43 °FPassing clouds.No wind93%29.69 "Hg10 mi
8:35 pm43 °FPartly cloudy.3 mph93%29.68 "Hg10 mi
7:55 pm43 °FLight rain. Overcast.6 mph87%29.68 "Hg10 mi
7:35 pm45 °FRain. Cloudy.6 mph87%29.68 "Hg7 mi
7:15 pm45 °FBroken clouds.3 mph87%29.67 "Hg10 mi
6:35 pm46 °FPartly sunny.7 mph82%29.66 "Hg10 mi
6:15 pm46 °FBroken clouds.6 mph76%29.65 "Hg10 mi
5:55 pm46 °FBroken clouds.7 mph87%29.66 "Hg10 mi
5:15 pm46 °FPartly sunny.7 mph87%29.65 "Hg10 mi
4:55 pm46 °FBroken clouds.7 mph82%29.64 "Hg10 mi
4:35 pm46 °FLight rain. Cloudy.7 mph82%29.64 "Hg10 mi
4:15 pm46 °FBroken clouds.5 mph82%29.65 "Hg10 mi
3:55 pm50 °FScattered clouds.6 mph71%29.65 "Hg10 mi
3:35 pm46 °FBroken clouds.8 mph82%29.65 "Hg10 mi
3:15 pm48 °FBroken clouds.3 mph76%29.66 "Hg10 mi
Weather by CustomWeather, © 2017

See weather overviewHow to use our weather pages